Regional Weather Roundup
Issued by NWS

Home | Current Version | Previous Version | Graphics & Text | Print | Product List | Glossary On
Versions: 1 2 3 4 5 6 7 8 9 10 11 12 13 14 15 16 17 18 19 20 21 22 23 24 25 26 27 28 29 30 31 32 33 34 35 36 37 38 39 40 41 42 43 44 45 46 47
000
ASUS45 KTFX 301810
RWRMT
MONTANA REGIONAL WEATHER ROUNDUP
NATIONAL WEATHER SERVICE GREAT FALLS MT
1200 PM MDT THU JUL 30 2015

NOTE: "FAIR" INDICATES FEW OR NO CLOUDS BELOW 12000 FEET WITH NO
SIGNIFICANT WEATHER AND/OR OBSTRUCTIONS TO VISIBILITY.

MTZ001>007-043-301900-
WEST OF THE DIVIDE

CITY           SKY/WX    TMP DP  RH WIND       PRES   REMARKS
KALISPELL      CLEAR     80  40  23 VRB6      30.24F
MISSOULA       SUNNY     73  42  32 CALM      30.29F
BUTTE          SUNNY     74  36  25 N6        30.39F
MULLAN PASS    SUNNY     68  33  27 VRB3      30.41R
DEER LODGE       N/A     73  39  29 CALM      30.38F
EUREKA           N/A     77  41  27 CALM      30.23F
HAMILTON         N/A     75  41  29 NW2       30.29F
LIBBY            N/A     77  39  25 NW5       30.22F
$$

MTZ008-052>055-301900-
SOUTHWEST MONTANA

CITY           SKY/WX    TMP DP  RH WIND       PRES   REMARKS
BOZEMAN        SUNNY     74  45  35 VRB5      30.34F
DILLON         SUNNY     72  43  35 CALM      30.36F
W YELLOWSTONE  SUNNY     70  37  30 SW3       30.47F
$$

MTZ009-010-012-014-046-048-049-054-301900-
EAST SLOPES AND CENTRAL MONTANA

CITY           SKY/WX    TMP DP  RH WIND       PRES   REMARKS
CUT BANK       SUNNY     81  34  18 S7        30.25F
GREAT FALLS    SUNNY     79  36  21 CALM      30.28S
MALMSTROM AFB  SUNNY     79  36  21 W6        30.27F
HELENA         SUNNY     76  43  30 E6        30.30F
$$

MTZ011-013-016-021-045-047-050-051-301900-
NORTH CENTRAL MONTANA

CITY           SKY/WX    TMP DP  RH WIND       PRES   REMARKS
HAVRE          SUNNY     78  49  35 VRB7      30.22F
LEWISTOWN      SUNNY     79  40  24 NW7       30.31S
CHINOOK          N/A     79  50  36 SW3       30.22F
FORT BENTON      N/A     82  41  23 CALM      30.25F
$$

MTZ017>020-022>027-061-062-301900-
NORTHEAST MONTANA

CITY           SKY/WX    TMP DP  RH WIND       PRES   REMARKS
GLASGOW        SUNNY     78  49  35 NW7       30.21F
JORDAN           N/A     82  42  24 CALM      30.22S
SIDNEY         SUNNY    N/A N/A N/A NW8       30.19S
WOLF POINT     SUNNY     82  46  28 CALM      30.20S
PLENTYWOOD       N/A     75  50  41 NW10G21   30.20S
POPLAR           N/A     79  46  31 W5        30.21S
$$

MTZ028>42-056>058-301900-
SOUTHCENTRAL AND SOUTHEAST MONTANA

CITY           SKY/WX    TMP DP  RH WIND       PRES   REMARKS
BAKER          SUNNY     84  41  21 NW10      30.24S
BILLINGS       MOSUNNY   80  40  23 SW8       30.29F
LIVINGSTON     SUNNY     80  39  23 NW7       30.32F
MILES CITY     SUNNY     86  43  22 MISG      30.21F
FORSYTH          N/A     84  43  23 W5        30.23S
$$

REGIONAL REPORTS...DAKOTAS

CITY           SKY/WX    TMP DP  RH WIND       PRES   REMARKS
WILLISTON      SUNNY     80  48  32 NW12      30.19S
MINOT          SUNNY     80  49  33 NW18G25   30.12S
DICKINSON      SUNNY     80  49  33 N9        30.19S
BEACH          FAIR      79  45  29 N9        30.23S
CROSBY         FAIR      75  50  41 NW18G24   30.18S
BISMARCK       SUNNY     80  53  39 N13       30.15S
GRAND FORKS    MOSUNNY   81  53  37 NW17G29   30.00S
FARGO          SUNNY     82  55  39 W17       30.05S
BUFFALO SD       N/A     85  38  18 W15G23    30.17S
RAPID CITY     SUNNY     84  45  25 N9        30.27S
$$

REGIONAL REPORTS...WYOMING/IDAHO/WASHINGTON

CITY           SKY/WX    TMP DP  RH WIND       PRES   REMARKS
GILLETTE         N/A     81  36  19 CALM      30.32
SHERIDAN       SUNNY     83  34  17 CALM      30.30S
BUFFALO WY     SUNNY     82  35  18 SE9       30.37S
CODY           SUNNY     79  36  21 CALM      30.35F
YELLOWSTONE LA   N/A     62  40  44 E5        30.57S
IDAHO FALLS    SUNNY     80  40  23 VRB5      30.36S
SALMON         SUNNY     72  45  37 CALM      30.31F
BOISE          SUNNY     85  33  15 SE5       30.24S
SPOKANE        SUNNY     85  39  19 VRB7      30.19F
$$

REGIONAL REPORTS...ALBERTA

CITY           SKY/WX    TMP DP  RH WIND       PRES   REMARKS
EDMONTON       MOSUNNY   68  43  40 W14       30.17F
CALGARY        MOSUNNY   73  39  29 S6        30.23F
LETHBRIDGE     MOSUNNY   75  48  38 E7        30.22F
MEDICINE HAT   SUNNY     75  50  41 SW3       30.21F
MILK RIVER       N/A     81  39  22 S3          N/A
ONEFOUR          N/A     75  41  29 S6          N/A
$$

REGIONAL REPORTS...SASKATCHEWAN

CITY           SKY/WX    TMP DP  RH WIND       PRES   REMARKS
SWIFT CURRENT  MOSUNNY   73  41  31 W7        30.21F
REGINA         PTSUNNY   73  52  46 NW17G23   30.17R
SASKATOON      PTSUNNY   72  46  40 NW15G22   30.13S
CYPRESS HILLS    N/A     70  45  40 NW3         N/A
VAL MARIE        N/A     77  48  36 NW5         N/A
ROCKGLEN         N/A     72  48  43 NW9         N/A
$$


USA.gov is the U.S. government's official web portal to all federal, state and local government web resources and services.